Time,TemperatureF,DewpointF,PressureIn,WindDirection,WindDirectionDegrees,WindSpeedMPH,WindSpeedGustMPH,Humidity,HourlyPrecipIn,Conditions,Clouds,dailyrainin,SoftwareType,DateUTC
2013-06-14 00:03:00,59.7,40.0,29.97,NW,309,0.0,1.0,48,0.00,,,0.00,LWC V2.10 B1813,2013-06-14 07:03:00,
2013-06-14 00:08:00,59.6,39.9,29.97,NW,317,0.0,2.0,48,0.00,,,0.00,LWC V2.10 B1813,2013-06-14 07:08:00,
2013-06-14 00:13:00,59.6,39.9,29.97,NW,322,0.0,0.0,48,0.00,,,0.00,LWC V2.10 B1813,2013-06-14 07:13:00,
2013-06-14 00:18:00,59.3,40.1,29.97,NW,316,0.0,1.0,49,0.00,,,0.00,LWC V2.10 B1813,2013-06-14 07:18:00,
2013-06-14 00:23:00,59.1,40.0,29.97,NW,316,0.0,1.0,49,0.00,,,0.00,LWC V2.10 B1813,2013-06-14 07:23:00,
2013-06-14 00:28:00,58.9,39.8,29.97,NW,316,0.0,0.0,49,0.00,,,0.00,LWC V2.10 B1813,2013-06-14 07:28:00,
2013-06-14 00:33:00,58.7,39.6,29.97,NW,316,0.0,0.0,49,0.00,,,0.00,LWC V2.10 B1813,2013-06-14 07:33:00,
2013-06-14 00:38:00,58.4,39.8,29.97,NW,316,0.0,0.0,50,0.00,,,0.00,LWC V2.10 B1813,2013-06-14 07:38:00,
2013-06-14 00:43:00,58.2,40.2,29.97,NW,316,0.0,0.0,51,0.00,,,0.00,LWC V2.10 B1813,2013-06-14 07:43:00,
2013-06-14 00:48:00,58.2,40.2,29.97,WNW,302,0.0,1.0,51,0.00,,,0.00,LWC V2.10 B1813,2013-06-14 07:48:00,
2013-06-14 00:53:00,58.2,40.2,29.96,NW,319,0.0,2.0,51,0.00,,,0.00,LWC V2.10 B1813,2013-06-14 07:53:00,
2013-06-14 00:58:00,58.4,39.8,29.96,NW,326,0.0,1.0,50,0.00,,,0.00,LWC V2.10 B1813,2013-06-14 07:58:00,
2013-06-14 01:03:00,58.6,40.0,29.96,NW,316,1.0,2.0,50,0.00,,,0.00,LWC V2.10 B1813,2013-06-14 08:03:00,
2013-06-14 01:08:00,58.8,39.7,29.96,NW,318,0.0,2.0,49,0.00,,,0.00,LWC V2.10 B1813,2013-06-14 08:08:00,
2013-06-14 01:13:00,58.7,39.6,29.96,North,5,1.0,1.0,49,0.00,,,0.00,LWC V2.10 B1813,2013-06-14 08:13:00,
2013-06-14 01:18:00,58.6,39.5,29.95,NE,51,0.0,4.0,49,0.00,,,0.00,LWC V2.10 B1813,2013-06-14 08:18:00,
2013-06-14 01:23:00,58.0,39.5,29.95,ENE,68,0.0,1.0,50,0.00,,,0.00,LWC V2.10 B1813,2013-06-14 08:23:00,
2013-06-14 01:28:00,57.4,39.4,29.95,ENE,68,0.0,1.0,51,0.00,,,0.00,LWC V2.10 B1813,2013-06-14 08:28:00,
2013-06-14 01:33:00,56.8,39.4,29.95,NE,56,0.0,0.0,52,0.00,,,0.00,LWC V2.10 B1813,2013-06-14 08:33:00,
2013-06-14 01:38:00,56.4,39.5,29.95,East,82,0.0,0.0,53,0.00,,,0.00,LWC V2.10 B1813,2013-06-14 08:38:00,
2013-06-14 01:43:00,55.9,39.5,29.95,East,82,0.0,1.0,54,0.00,,,0.00,LWC V2.10 B1813,2013-06-14 08:43:00,
2013-06-14 01:48:00,55.6,39.7,29.95,East,79,0.0,1.0,55,0.00,,,0.00,LWC V2.10 B1813,2013-06-14 08:48:00,
2013-06-14 01:53:00,55.4,40.0,29.95,East,92,0.0,1.0,56,0.00,,,0.00,LWC V2.10 B1813,2013-06-14 08:53:00,
2013-06-14 01:58:00,55.3,39.9,29.95,East,91,0.0,1.0,56,0.00,,,0.00,LWC V2.10 B1813,2013-06-14 08:58:00,
2013-06-14 02:03:00,55.2,40.2,29.95,East,91,0.0,1.0,57,0.00,,,0.00,LWC V2.10 B1813,2013-06-14 09:03:00,
2013-06-14 02:08:00,55.2,40.2,29.94,ENE,60,0.0,0.0,57,0.00,,,0.00,LWC V2.10 B1813,2013-06-14 09:08:00,
2013-06-14 02:13:00,55.0,40.0,29.94,ENE,59,0.0,0.0,57,0.00,,,0.00,LWC V2.10 B1813,2013-06-14 09:13:00,
2013-06-14 02:18:00,55.2,40.2,29.94,ENE,59,0.0,0.0,57,0.00,,,0.00,LWC V2.10 B1813,2013-06-14 09:18:00,
2013-06-14 02:23:00,56.0,40.5,29.94,NW,326,0.0,0.0,56,0.00,,,0.00,LWC V2.10 B1813,2013-06-14 09:23:00,
2013-06-14 02:28:00,56.9,40.4,29.94,NW,316,0.0,2.0,54,0.00,,,0.00,LWC V2.10 B1813,2013-06-14 09:28:00,
2013-06-14 02:33:00,57.3,40.3,29.94,NW,319,0.0,1.0,53,0.00,,,0.00,LWC V2.10 B1813,2013-06-14 09:33:00,
2013-06-14 02:38:00,57.5,40.5,29.94,NE,56,0.0,1.0,53,0.00,,,0.00,LWC V2.10 B1813,2013-06-14 09:38:00,
2013-06-14 02:43:00,57.3,40.3,29.94,NW,314,0.0,1.0,53,0.00,,,0.00,LWC V2.10 B1813,2013-06-14 09:43:00,
2013-06-14 02:48:00,57.1,40.1,29.94,NW,314,0.0,0.0,53,0.00,,,0.00,LWC V2.10 B1813,2013-06-14 09:48:00,
2013-06-14 02:53:00,56.9,39.9,29.94,NW,325,0.0,0.0,53,0.00,,,0.00,LWC V2.10 B1813,2013-06-14 09:53:00,
2013-06-14 02:58:00,57.0,40.0,29.93,NNW,330,1.0,1.0,53,0.00,,,0.00,LWC V2.10 B1813,2013-06-14 09:58:00,
2013-06-14 03:03:00,57.1,40.1,29.93,NNW,330,1.0,2.0,53,0.00,,,0.00,LWC V2.10 B1813,2013-06-14 10:03:00,
2013-06-14 03:08:00,57.1,40.1,29.93,WNW,303,1.0,1.0,53,0.00,,,0.00,LWC V2.10 B1813,2013-06-14 10:08:00,
2013-06-14 03:13:00,56.8,39.9,29.93,NW,304,0.0,0.0,53,0.00,,,0.00,LWC V2.10 B1813,2013-06-14 10:13:00,
2013-06-14 03:18:00,56.5,39.6,29.93,NW,305,0.0,0.0,53,0.00,,,0.00,LWC V2.10 B1813,2013-06-14 10:18:00,
2013-06-14 03:23:00,56.1,39.7,29.93,NW,304,0.0,0.0,54,0.00,,,0.00,LWC V2.10 B1813,2013-06-14 10:23:00,
2013-06-14 03:28:00,55.6,39.7,29.93,NW,305,0.0,0.0,55,0.00,,,0.00,LWC V2.10 B1813,2013-06-14 10:28:00,
2013-06-14 03:33:00,55.6,39.7,29.93,NW,304,0.0,1.0,55,0.00,,,0.00,LWC V2.10 B1813,2013-06-14 10:33:00,
2013-06-14 03:38:00,55.6,40.2,29.93,NW,305,0.0,0.0,56,0.00,,,0.00,LWC V2.10 B1813,2013-06-14 10:38:00,
2013-06-14 03:43:00,55.7,39.8,29.93,NW,304,0.0,0.0,55,0.00,,,0.00,LWC V2.10 B1813,2013-06-14 10:43:00,
2013-06-14 03:48:00,55.4,39.5,29.92,NW,305,0.0,0.0,55,0.00,,,0.00,LWC V2.10 B1813,2013-06-14 10:48:00,
2013-06-14 03:53:00,55.1,39.7,29.93,NW,304,0.0,0.0,56,0.00,,,0.00,LWC V2.10 B1813,2013-06-14 10:53:00,
2013-06-14 03:58:00,54.7,39.8,29.92,NW,305,0.0,0.0,57,0.00,,,0.00,LWC V2.10 B1813,2013-06-14 10:58:00,
2013-06-14 04:03:00,54.5,39.6,29.92,NNW,338,0.0,0.0,57,0.00,,,0.00,LWC V2.10 B1813,2013-06-14 11:03:00,
2013-06-14 04:08:00,54.4,39.9,29.92,NNW,330,1.0,1.0,58,0.00,,,0.00,LWC V2.10 B1813,2013-06-14 11:08:00,
2013-06-14 04:13:00,54.3,39.4,29.92,NW,321,0.0,1.0,57,0.00,,,0.00,LWC V2.10 B1813,2013-06-14 11:13:00,
2013-06-14 04:18:00,53.9,39.5,29.92,NW,321,0.0,0.0,58,0.00,,,0.00,LWC V2.10 B1813,2013-06-14 11:18:00,
2013-06-14 04:23:00,53.7,39.3,29.92,NW,321,0.0,0.0,58,0.00,,,0.00,LWC V2.10 B1813,2013-06-14 11:23:00,
2013-06-14 04:28:00,53.6,39.6,29.92,NW,321,0.0,0.0,59,0.00,,,0.00,LWC V2.10 B1813,2013-06-14 11:28:00,
2013-06-14 04:33:00,53.5,39.5,29.92,NW,321,0.0,0.0,59,0.00,,,0.00,LWC V2.10 B1813,2013-06-14 11:33:00,
2013-06-14 04:38:00,53.2,39.7,29.92,NW,321,0.0,0.0,60,0.00,,,0.00,LWC V2.10 B1813,2013-06-14 11:38:00,
2013-06-14 04:43:00,52.9,39.4,29.92,NW,321,0.0,0.0,60,0.00,,,0.00,LWC V2.10 B1813,2013-06-14 11:43:00,
2013-06-14 04:48:00,52.7,39.6,29.92,NW,321,0.0,0.0,61,0.00,,,0.00,LWC V2.10 B1813,2013-06-14 11:48:00,
2013-06-14 04:50:00,52.6,39.5,29.92,NW,321,0.0,0.0,61,0.00,,,0.00,LWC V2.10 B1813,2013-06-14 11:50:00,
2013-06-14 04:55:00,52.8,39.7,29.92,NW,320,0.0,0.0,61,0.00,,,0.00,LWC V2.10 B1813,2013-06-14 11:55:00,
2013-06-14 05:00:00,53.0,39.9,29.92,NW,321,0.0,0.0,61,0.00,,,0.00,LWC V2.10 B1813,2013-06-14 12:00:00,
2013-06-14 05:05:00,53.3,40.2,29.92,NW,321,0.0,0.0,61,0.00,,,0.00,LWC V2.10 B1813,2013-06-14 12:05:00,
2013-06-14 05:10:00,53.5,40.0,29.92,NW,321,0.0,0.0,60,0.00,,,0.00,LWC V2.10 B1813,2013-06-14 12:10:00,
2013-06-14 05:15:00,53.6,40.1,29.92,NW,320,0.0,0.0,60,0.00,,,0.00,LWC V2.10 B1813,2013-06-14 12:15:00,
2013-06-14 05:20:00,53.6,40.1,29.92,NW,321,0.0,0.0,60,0.00,,,0.00,LWC V2.10 B1813,2013-06-14 12:20:00,
2013-06-14 05:25:00,53.6,40.1,29.92,NW,320,0.0,1.0,60,0.00,,,0.00,LWC V2.10 B1813,2013-06-14 12:25:00,
2013-06-14 05:30:00,53.4,39.9,29.92,NW,323,0.0,0.0,60,0.00,,,0.00,LWC V2.10 B1813,2013-06-14 12:30:00,
2013-06-14 05:35:00,53.2,40.1,29.92,NNW,330,0.0,1.0,61,0.00,,,0.00,LWC V2.10 B1813,2013-06-14 12:35:00,
2013-06-14 05:40:00,53.1,40.0,29.92,NNW,330,0.0,1.0,61,0.00,,,0.00,LWC V2.10 B1813,2013-06-14 12:40:00,
2013-06-14 05:45:00,53.1,39.6,29.92,NW,322,0.0,0.0,60,0.00,,,0.00,LWC V2.10 B1813,2013-06-14 12:45:00,
2013-06-14 05:50:00,53.0,39.5,29.92,NW,322,0.0,0.0,60,0.00,,,0.00,LWC V2.10 B1813,2013-06-14 12:50:00,
2013-06-14 05:55:00,52.8,39.3,29.92,NW,322,0.0,0.0,60,0.00,,,0.00,LWC V2.10 B1813,2013-06-14 12:55:00,
2013-06-14 06:00:00,52.2,38.3,29.92,NW,322,0.0,0.0,59,0.00,,,0.00,LWC V2.10 B1813,2013-06-14 13:00:00,
2013-06-14 06:05:00,51.2,37.8,29.92,NW,322,0.0,0.0,60,0.00,,,0.00,LWC V2.10 B1813,2013-06-14 13:05:00,
2013-06-14 06:10:00,50.1,38.4,29.92,NW,322,0.0,0.0,64,0.00,,,0.00,LWC V2.10 B1813,2013-06-14 13:10:00,
2013-06-14 06:15:00,49.7,38.4,29.92,NW,322,0.0,0.0,65,0.00,,,0.00,LWC V2.10 B1813,2013-06-14 13:15:00,
2013-06-14 06:20:00,49.5,38.6,29.92,NW,322,0.0,0.0,66,0.00,,,0.00,LWC V2.10 B1813,2013-06-14 13:20:00,
2013-06-14 06:25:00,49.4,38.9,29.92,NW,322,0.0,0.0,67,0.00,,,0.00,LWC V2.10 B1813,2013-06-14 13:25:00,
2013-06-14 06:30:00,49.2,38.7,29.92,NW,322,0.0,0.0,67,0.00,,,0.00,LWC V2.10 B1813,2013-06-14 13:30:00,
2013-06-14 06:35:00,49.2,39.1,29.92,NW,322,0.0,0.0,68,0.00,,,0.00,LWC V2.10 B1813,2013-06-14 13:35:00,
2013-06-14 06:40:00,49.6,39.1,29.92,NW,322,0.0,0.0,67,0.00,,,0.00,LWC V2.10 B1813,2013-06-14 13:40:00,
2013-06-14 06:45:00,50.6,39.3,29.92,NW,322,0.0,0.0,65,0.00,,,0.00,LWC V2.10 B1813,2013-06-14 13:45:00,
2013-06-14 06:50:00,51.0,39.7,29.92,NW,322,0.0,0.0,65,0.00,,,0.00,LWC V2.10 B1813,2013-06-14 13:50:00,
2013-06-14 06:55:00,51.3,40.3,29.92,NW,322,0.0,0.0,66,0.00,,,0.00,LWC V2.10 B1813,2013-06-14 13:55:00,
2013-06-14 07:00:00,52.2,40.8,29.92,NW,322,0.0,0.0,65,0.00,,,0.00,LWC V2.10 B1813,2013-06-14 14:00:00,
2013-06-14 07:05:00,54.2,41.5,29.92,NW,322,0.0,0.0,62,0.00,,,0.00,LWC V2.10 B1813,2013-06-14 14:05:00,
2013-06-14 07:10:00,55.7,41.6,29.92,NW,322,0.0,0.0,59,0.00,,,0.00,LWC V2.10 B1813,2013-06-14 14:10:00,
2013-06-14 07:15:00,57.1,42.5,29.92,NW,322,0.0,0.0,58,0.00,,,0.00,LWC V2.10 B1813,2013-06-14 14:15:00,
2013-06-14 07:20:00,59.3,42.7,29.92,NW,322,0.0,0.0,54,0.00,,,0.00,LWC V2.10 B1813,2013-06-14 14:20:00,
2013-06-14 07:25:00,60.1,42.4,29.92,NW,322,0.0,0.0,52,0.00,,,0.00,LWC V2.10 B1813,2013-06-14 14:25:00,
2013-06-14 07:30:00,60.8,41.0,29.92,NW,319,0.0,0.0,48,0.00,,,0.00,LWC V2.10 B1813,2013-06-14 14:30:00,
2013-06-14 07:35:00,61.5,41.1,29.92,West,270,0.0,1.0,47,0.00,,,0.00,LWC V2.10 B1813,2013-06-14 14:35:00,
2013-06-14 07:40:00,62.5,41.4,29.92,West,267,0.0,1.0,46,0.00,,,0.00,LWC V2.10 B1813,2013-06-14 14:40:00,
2013-06-14 07:45:00,63.2,41.5,29.92,West,267,0.0,0.0,45,0.00,,,0.00,LWC V2.10 B1813,2013-06-14 14:45:00,
2013-06-14 07:50:00,65.1,42.6,29.92,West,267,0.0,1.0,44,0.00,,,0.00,LWC V2.10 B1813,2013-06-14 14:50:00,
2013-06-14 07:55:00,66.6,42.2,29.92,West,267,0.0,0.0,41,0.00,,,0.00,LWC V2.10 B1813,2013-06-14 14:55:00,
2013-06-14 08:00:00,68.7,42.1,29.92,SE,127,2.0,2.0,38,0.00,,,0.00,LWC V2.10 B1813,2013-06-14 15:00:00,
2013-06-14 08:05:00,69.2,41.8,29.92,West,269,1.0,3.0,37,0.00,,,0.00,LWC V2.10 B1813,2013-06-14 15:05:00,
2013-06-14 08:10:00,69.4,42.0,29.92,NW,314,0.0,1.0,37,0.00,,,0.00,LWC V2.10 B1813,2013-06-14 15:10:00,
2013-06-14 08:15:00,69.7,40.1,29.91,NW,314,0.0,1.0,34,0.00,,,0.00,LWC V2.10 B1813,2013-06-14 15:15:00,
2013-06-14 08:20:00,70.7,40.9,29.91,East,88,0.0,1.0,34,0.00,,,0.00,LWC V2.10 B1813,2013-06-14 15:20:00,
2013-06-14 08:25:00,71.5,38.4,29.92,North,355,0.0,2.0,30,0.00,,,0.00,LWC V2.10 B1813,2013-06-14 15:25:00,
2013-06-14 08:30:00,72.0,38.0,29.91,East,82,5.0,5.0,29,0.00,,,0.00,LWC V2.10 B1813,2013-06-14 15:30:00,
2013-06-14 08:35:00,72.3,38.3,29.91,ENE,74,6.0,6.0,29,0.00,,,0.00,LWC V2.10 B1813,2013-06-14 15:35:00,
2013-06-14 08:40:00,72.6,36.7,29.91,ENE,75,4.0,5.0,27,0.00,,,0.00,LWC V2.10 B1813,2013-06-14 15:40:00,
2013-06-14 08:45:00,72.7,36.8,29.92,ENE,61,4.0,5.0,27,0.00,,,0.00,LWC V2.10 B1813,2013-06-14 15:45:00,
2013-06-14 08:50:00,73.3,36.3,29.92,ENE,71,4.0,5.0,26,0.00,,,0.00,LWC V2.10 B1813,2013-06-14 15:50:00,
2013-06-14 08:55:00,73.6,36.6,29.92,North,11,0.0,2.0,26,0.00,,,0.00,LWC V2.10 B1813,2013-06-14 15:55:00,
2013-06-14 09:00:00,73.5,36.5,29.92,ESE,121,1.0,6.0,26,0.00,,,0.00,LWC V2.10 B1813,2013-06-14 16:00:00,
2013-06-14 09:05:00,73.7,35.7,29.92,NW,326,2.0,4.0,25,0.00,,,0.00,LWC V2.10 B1813,2013-06-14 16:05:00,
2013-06-14 09:10:00,74.3,36.2,29.92,NE,54,1.0,3.0,25,0.00,,,0.00,LWC V2.10 B1813,2013-06-14 16:10:00,
2013-06-14 09:15:00,75.0,35.7,29.92,East,100,2.0,3.0,24,0.00,,,0.00,LWC V2.10 B1813,2013-06-14 16:15:00,
2013-06-14 09:20:00,75.5,37.2,29.91,NNW,343,1.0,7.0,25,0.00,,,0.00,LWC V2.10 B1813,2013-06-14 16:20:00,
2013-06-14 09:25:00,75.7,35.3,29.92,NNW,335,0.0,6.0,23,0.00,,,0.00,LWC V2.10 B1813,2013-06-14 16:25:00,
2013-06-14 09:30:00,76.0,35.5,29.92,NW,305,3.0,5.0,23,0.00,,,0.00,LWC V2.10 B1813,2013-06-14 16:30:00,
2013-06-14 09:35:00,75.8,35.3,29.92,ENE,67,6.0,9.0,23,0.00,,,0.00,LWC V2.10 B1813,2013-06-14 16:35:00,
2013-06-14 09:40:00,75.8,35.3,29.91,NW,304,2.0,3.0,23,0.00,,,0.00,LWC V2.10 B1813,2013-06-14 16:40:00,
2013-06-14 09:45:00,76.2,36.8,29.91,NNW,347,3.0,5.0,24,0.00,,,0.00,LWC V2.10 B1813,2013-06-14 16:45:00,
2013-06-14 09:50:00,76.2,34.6,29.91,WNW,302,1.0,11.0,22,0.00,,,0.00,LWC V2.10 B1813,2013-06-14 16:50:00,
2013-06-14 09:55:00,77.0,36.3,29.91,ENE,60,2.0,9.0,23,0.00,,,0.00,LWC V2.10 B1813,2013-06-14 16:55:00,
2013-06-14 10:00:00,77.5,34.5,29.91,NE,43,3.0,4.0,21,0.00,,,0.00,LWC V2.10 B1813,2013-06-14 17:00:00,
2013-06-14 10:05:00,77.9,34.8,29.91,East,91,2.0,4.0,21,0.00,,,0.00,LWC V2.10 B1813,2013-06-14 17:05:00,
2013-06-14 10:10:00,77.9,33.6,29.91,East,94,6.0,7.0,20,0.00,,,0.00,LWC V2.10 B1813,2013-06-14 17:10:00,
2013-06-14 10:15:00,78.0,31.1,29.91,NE,35,6.0,11.0,18,0.00,,,0.00,LWC V2.10 B1813,2013-06-14 17:15:00,
2013-06-14 10:20:00,79.0,34.5,29.91,SSE,148,1.0,2.0,20,0.00,,,0.00,LWC V2.10 B1813,2013-06-14 17:20:00,
2013-06-14 10:25:00,80.0,32.7,29.90,North,349,2.0,9.0,18,0.00,,,0.00,LWC V2.10 B1813,2013-06-14 17:25:00,
2013-06-14 10:30:00,79.7,32.4,29.90,NW,326,3.0,3.0,18,0.00,,,0.00,LWC V2.10 B1813,2013-06-14 17:30:00,
2013-06-14 10:35:00,80.1,31.3,29.90,NE,54,2.0,6.0,17,0.00,,,0.00,LWC V2.10 B1813,2013-06-14 17:35:00,
2013-06-14 10:40:00,79.8,31.1,29.90,NE,34,5.0,9.0,17,0.00,,,0.00,LWC V2.10 B1813,2013-06-14 17:40:00,
2013-06-14 10:45:00,79.6,30.9,29.90,ENE,60,4.0,8.0,17,0.00,,,0.00,LWC V2.10 B1813,2013-06-14 17:45:00,
2013-06-14 10:50:00,78.8,30.3,29.90,NE,49,4.0,7.0,17,0.00,,,0.00,LWC V2.10 B1813,2013-06-14 17:50:00,
2013-06-14 10:55:00,79.7,31.0,29.90,ENE,64,6.0,9.0,17,0.00,,,0.00,LWC V2.10 B1813,2013-06-14 17:55:00,
2013-06-14 11:00:00,79.6,30.9,29.90,NNE,28,3.0,4.0,17,0.00,,,0.00,LWC V2.10 B1813,2013-06-14 18:00:00,
2013-06-14 11:05:00,80.4,30.1,29.90,East,81,7.0,8.0,16,0.00,,,0.00,LWC V2.10 B1813,2013-06-14 18:05:00,
2013-06-14 11:10:00,80.8,31.9,29.90,NE,40,3.0,5.0,17,0.00,,,0.00,LWC V2.10 B1813,2013-06-14 18:10:00,
2013-06-14 11:15:00,80.4,30.1,29.90,East,90,2.0,6.0,16,0.00,,,0.00,LWC V2.10 B1813,2013-06-14 18:15:00,
2013-06-14 11:20:00,81.0,29.0,29.90,North,11,1.0,3.0,15,0.00,,,0.00,LWC V2.10 B1813,2013-06-14 18:20:00,
2013-06-14 11:25:00,81.3,29.2,29.90,NNW,345,0.0,4.0,15,0.00,,,0.00,LWC V2.10 B1813,2013-06-14 18:25:00,
2013-06-14 11:30:00,81.6,31.0,29.89,East,82,3.0,3.0,16,0.00,,,0.00,LWC V2.10 B1813,2013-06-14 18:30:00,
2013-06-14 11:35:00,82.2,31.5,29.89,SSE,159,0.0,1.0,16,0.00,,,0.00,LWC V2.10 B1813,2013-06-14 18:35:00,
2013-06-14 11:40:00,82.6,31.8,29.89,NW,323,1.0,2.0,16,0.00,,,0.00,LWC V2.10 B1813,2013-06-14 18:40:00,
2013-06-14 11:45:00,83.2,32.3,29.89,NNE,25,1.0,6.0,16,0.00,,,0.00,LWC V2.10 B1813,2013-06-14 18:45:00,
2013-06-14 11:50:00,83.8,31.2,29.89,East,79,5.0,9.0,15,0.00,,,0.00,LWC V2.10 B1813,2013-06-14 18:50:00,
2013-06-14 11:55:00,83.2,25.3,29.89,South,169,2.0,4.0,12,0.00,,,0.00,LWC V2.10 B1813,2013-06-14 18:55:00,
2013-06-14 12:00:00,82.8,22.9,29.89,NW,321,3.0,4.0,11,0.00,,,0.00,LWC V2.10 B1813,2013-06-14 19:00:00,
2013-06-14 12:05:00,83.4,30.9,29.89,WNW,297,1.0,3.0,15,0.00,,,0.00,LWC V2.10 B1813,2013-06-14 19:05:00,
2013-06-14 12:10:00,84.7,28.4,29.89,NW,304,1.0,4.0,13,0.00,,,0.00,LWC V2.10 B1813,2013-06-14 19:10:00,
2013-06-14 12:15:00,84.7,28.4,29.89,ENE,61,2.0,5.0,13,0.00,,,0.00,LWC V2.10 B1813,2013-06-14 19:15:00,
2013-06-14 12:20:00,84.9,28.6,29.89,WNW,303,2.0,4.0,13,0.00,,,0.00,LWC V2.10 B1813,2013-06-14 19:20:00,
2013-06-14 12:25:00,84.9,28.6,29.89,NNE,15,2.0,3.0,13,0.00,,,0.00,LWC V2.10 B1813,2013-06-14 19:25:00,
2013-06-14 12:30:00,85.0,24.6,29.88,South,186,0.0,2.0,11,0.00,,,0.00,LWC V2.10 B1813,2013-06-14 19:30:00,
2013-06-14 12:35:00,85.5,27.1,29.88,NE,42,3.0,8.0,12,0.00,,,0.00,LWC V2.10 B1813,2013-06-14 19:35:00,
2013-06-14 12:40:00,85.3,26.9,29.88,NW,314,3.0,5.0,12,0.00,,,0.00,LWC V2.10 B1813,2013-06-14 19:40:00,
2013-06-14 12:45:00,84.9,26.6,29.88,East,89,5.0,9.0,12,0.00,,,0.00,LWC V2.10 B1813,2013-06-14 19:45:00,
2013-06-14 12:50:00,85.5,27.1,29.88,NNE,16,3.0,3.0,12,0.00,,,0.00,LWC V2.10 B1813,2013-06-14 19:50:00,
2013-06-14 12:55:00,86.6,25.8,29.88,NNE,13,1.0,2.0,11,0.00,,,0.00,LWC V2.10 B1813,2013-06-14 19:55:00,
2013-06-14 13:00:00,86.5,25.7,29.87,ENE,74,6.0,8.0,11,0.00,,,0.00,LWC V2.10 B1813,2013-06-14 20:00:00,
2013-06-14 13:05:00,86.7,25.9,29.88,NW,321,3.0,7.0,11,0.00,,,0.00,LWC V2.10 B1813,2013-06-14 20:05:00,
2013-06-14 13:10:00,86.8,23.7,29.88,NNW,343,1.0,3.0,10,0.00,,,0.00,LWC V2.10 B1813,2013-06-14 20:10:00,
2013-06-14 13:15:00,86.9,21.3,29.87,ENE,62,5.0,5.0,9,0.00,,,0.00,LWC V2.10 B1813,2013-06-14 20:15:00,
2013-06-14 13:20:00,86.1,25.4,29.87,ENE,63,3.0,4.0,11,0.00,,,0.00,LWC V2.10 B1813,2013-06-14 20:20:00,
2013-06-14 13:26:00,86.0,25.4,29.87,NNW,346,0.0,4.0,11,0.00,,,0.00,LWC V2.10 B1813,2013-06-14 20:26:00,
2013-06-14 13:31:00,86.8,23.7,29.86,WNW,287,0.0,2.0,10,0.00,,,0.00,LWC V2.10 B1813,2013-06-14 20:31:00,
2013-06-14 13:36:00,85.9,25.3,29.86,NE,34,2.0,3.0,11,0.00,,,0.00,LWC V2.10 B1813,2013-06-14 20:36:00,
2013-06-14 13:41:00,86.0,23.1,29.86,NNW,339,3.0,4.0,10,0.00,,,0.00,LWC V2.10 B1813,2013-06-14 20:41:00,
2013-06-14 13:45:00,87.0,23.8,29.86,North,357,2.0,3.0,10,0.00,,,0.00,LWC V2.10 B1813,2013-06-14 20:45:00,
2013-06-14 13:50:00,87.4,24.1,29.86,East,88,4.0,6.0,10,0.00,,,0.00,LWC V2.10 B1813,2013-06-14 20:50:00,
2013-06-14 13:55:00,87.0,21.3,29.86,East,88,1.0,3.0,9,0.00,,,0.00,LWC V2.10 B1813,2013-06-14 20:55:00,
2013-06-14 14:00:00,87.7,21.9,29.85,SE,127,1.0,4.0,9,0.00,,,0.00,LWC V2.10 B1813,2013-06-14 21:00:00,
2013-06-14 14:05:00,88.3,24.8,29.85,West,278,3.0,3.0,10,0.00,,,0.00,LWC V2.10 B1813,2013-06-14 21:05:00,
2013-06-14 14:11:00,88.6,25.1,29.85,NW,310,1.0,5.0,10,0.00,,,0.00,LWC V2.10 B1813,2013-06-14 21:11:00,
2013-06-14 14:16:00,88.6,25.1,29.85,ENE,76,2.0,3.0,10,0.00,,,0.00,LWC V2.10 B1813,2013-06-14 21:16:00,
2013-06-14 14:21:00,88.8,25.2,29.85,West,273,2.0,3.0,10,0.00,,,0.00,LWC V2.10 B1813,2013-06-14 21:21:00,
2013-06-14 14:26:00,88.7,22.6,29.85,WNW,288,4.0,4.0,9,0.00,,,0.00,LWC V2.10 B1813,2013-06-14 21:26:00,
2013-06-14 14:31:00,88.5,22.5,29.84,SSW,204,1.0,6.0,9,0.00,,,0.00,LWC V2.10 B1813,2013-06-14 21:31:00,
2013-06-14 14:35:00,88.4,22.4,29.84,NW,307,3.0,7.0,9,0.00,,,0.00,LWC V2.10 B1813,2013-06-14 21:35:00,
2013-06-14 14:40:00,89.6,23.3,29.84,SW,233,1.0,2.0,9,0.00,,,0.00,LWC V2.10 B1813,2013-06-14 21:40:00,
2013-06-14 14:45:00,90.1,23.7,29.84,ENE,77,1.0,4.0,9,0.00,,,0.00,LWC V2.10 B1813,2013-06-14 21:45:00,
2013-06-14 14:50:00,90.0,36.1,29.84,WNW,301,3.0,5.0,15,0.00,,,0.00,LWC V2.10 B1813,2013-06-14 21:50:00,
2013-06-14 14:55:00,88.4,38.0,29.84,WNW,298,1.0,5.0,17,0.00,,,0.00,LWC V2.10 B1813,2013-06-14 21:55:00,
2013-06-14 15:00:00,88.3,37.9,29.84,West,260,4.0,8.0,17,0.00,,,0.00,LWC V2.10 B1813,2013-06-14 22:00:00,
2013-06-14 15:05:00,87.9,37.6,29.84,WSW,246,2.0,8.0,17,0.00,,,0.00,LWC V2.10 B1813,2013-06-14 22:05:00,
2013-06-14 15:10:00,87.3,38.6,29.83,SSW,198,4.0,7.0,18,0.00,,,0.00,LWC V2.10 B1813,2013-06-14 22:10:00,
2013-06-14 15:15:00,86.6,38.0,29.83,SW,236,2.0,3.0,18,0.00,,,0.00,LWC V2.10 B1813,2013-06-14 22:15:00,
2013-06-14 15:20:00,86.6,36.6,29.83,SW,220,3.0,8.0,17,0.00,,,0.00,LWC V2.10 B1813,2013-06-14 22:20:00,
2013-06-14 15:25:00,86.9,36.8,29.83,NW,315,2.0,4.0,17,0.00,,,0.00,LWC V2.10 B1813,2013-06-14 22:25:00,
2013-06-14 15:30:00,86.8,35.2,29.83,West,264,3.0,4.0,16,0.00,,,0.00,LWC V2.10 B1813,2013-06-14 22:30:00,
2013-06-14 15:35:00,86.3,36.3,29.83,WSW,256,3.0,7.0,17,0.00,,,0.00,LWC V2.10 B1813,2013-06-14 22:35:00,
2013-06-14 15:40:00,86.0,36.1,29.83,SSW,205,2.0,9.0,17,0.00,,,0.00,LWC V2.10 B1813,2013-06-14 22:40:00,
2013-06-14 15:45:00,85.7,35.8,29.83,WSW,257,1.0,2.0,17,0.00,,,0.00,LWC V2.10 B1813,2013-06-14 22:45:00,
2013-06-14 15:50:00,86.1,36.2,29.83,WSW,242,2.0,3.0,17,0.00,,,0.00,LWC V2.10 B1813,2013-06-14 22:50:00,
2013-06-14 15:55:00,86.3,34.8,29.83,West,259,0.0,5.0,16,0.00,,,0.00,LWC V2.10 B1813,2013-06-14 22:55:00,
2013-06-14 16:00:00,86.2,36.2,29.83,SSW,195,2.0,4.0,17,0.00,,,0.00,LWC V2.10 B1813,2013-06-14 23:00:00,
2013-06-14 16:05:00,85.7,37.3,29.83,WSW,246,3.0,4.0,18,0.00,,,0.00,LWC V2.10 B1813,2013-06-14 23:05:00,
2013-06-14 16:10:00,85.5,37.1,29.83,SSW,201,1.0,5.0,18,0.00,,,0.00,LWC V2.10 B1813,2013-06-14 23:10:00,
2013-06-14 16:15:00,85.6,37.2,29.83,SW,214,1.0,4.0,18,0.00,,,0.00,LWC V2.10 B1813,2013-06-14 23:15:00,
2013-06-14 16:20:00,85.2,36.9,29.82,WNW,289,3.0,4.0,18,0.00,,,0.00,LWC V2.10 B1813,2013-06-14 23:20:00,
2013-06-14 16:25:00,84.5,36.3,29.82,SW,214,1.0,4.0,18,0.00,,,0.00,LWC V2.10 B1813,2013-06-14 23:25:00,
2013-06-14 16:30:00,84.6,35.0,29.82,WSW,253,1.0,6.0,17,0.00,,,0.00,LWC V2.10 B1813,2013-06-14 23:30:00,
2013-06-14 16:35:00,84.5,33.4,29.82,WNW,282,1.0,4.0,16,0.00,,,0.00,LWC V2.10 B1813,2013-06-14 23:35:00,
2013-06-14 16:40:00,83.7,34.2,29.82,SSW,200,2.0,3.0,17,0.00,,,0.00,LWC V2.10 B1813,2013-06-14 23:40:00,
2013-06-14 16:45:00,82.6,33.4,29.82,SSW,205,1.0,3.0,17,0.00,,,0.00,LWC V2.10 B1813,2013-06-14 23:45:00,
2013-06-14 16:50:00,82.1,32.9,29.82,SSW,204,2.0,3.0,17,0.00,,,0.00,LWC V2.10 B1813,2013-06-14 23:50:00,
2013-06-14 16:55:00,82.1,32.9,29.82,SSW,213,0.0,4.0,17,0.00,,,0.00,LWC V2.10 B1813,2013-06-14 23:55:00,
2013-06-14 17:00:00,82.8,32.0,29.82,SSW,211,2.0,3.0,16,0.00,,,0.00,LWC V2.10 B1813,2013-06-15 00:00:00,
2013-06-14 17:05:00,82.6,30.3,29.82,WSW,248,4.0,4.0,15,0.00,,,0.00,LWC V2.10 B1813,2013-06-15 00:05:00,
2013-06-14 17:10:00,81.9,29.7,29.82,SW,221,2.0,4.0,15,0.00,,,0.00,LWC V2.10 B1813,2013-06-15 00:10:00,
2013-06-14 17:15:00,81.9,29.7,29.82,WSW,246,1.0,3.0,15,0.00,,,0.00,LWC V2.10 B1813,2013-06-15 00:15:00,
2013-06-14 17:20:00,81.4,27.6,29.82,SSW,201,1.0,3.0,14,0.00,,,0.00,LWC V2.10 B1813,2013-06-15 00:20:00,
2013-06-14 17:25:00,81.8,29.6,29.81,WSW,240,1.0,2.0,15,0.00,,,0.00,LWC V2.10 B1813,2013-06-15 00:25:00,
2013-06-14 17:30:00,83.0,28.9,29.81,SW,214,2.0,4.0,14,0.00,,,0.00,LWC V2.10 B1813,2013-06-15 00:30:00,
2013-06-14 17:35:00,82.8,28.7,29.81,West,262,2.0,3.0,14,0.00,,,0.00,LWC V2.10 B1813,2013-06-15 00:35:00,
2013-06-14 17:40:00,82.4,33.2,29.81,West,259,1.0,3.0,17,0.00,,,0.00,LWC V2.10 B1813,2013-06-15 00:40:00,
2013-06-14 17:45:00,82.8,33.5,29.81,SSW,208,1.0,2.0,17,0.00,,,0.00,LWC V2.10 B1813,2013-06-15 00:45:00,
2013-06-14 17:50:00,82.8,34.9,29.81,West,269,2.0,3.0,18,0.00,,,0.00,LWC V2.10 B1813,2013-06-15 00:50:00,
2013-06-14 17:55:00,81.8,34.1,29.81,SW,222,3.0,4.0,18,0.00,,,0.00,LWC V2.10 B1813,2013-06-15 00:55:00,
2013-06-14 18:00:00,80.7,35.9,29.81,West,269,2.0,2.0,20,0.00,,,0.00,LWC V2.10 B1813,2013-06-15 01:00:00,
2013-06-14 18:01:00,80.7,35.9,29.81,WSW,256,0.0,2.0,20,0.00,,,0.00,LWC V2.10 B1813,2013-06-15 01:01:00,
2013-06-14 18:06:00,80.3,35.6,29.81,South,179,1.0,2.0,20,0.00,,,0.00,LWC V2.10 B1813,2013-06-15 01:06:00,
2013-06-14 18:11:00,80.2,35.5,29.81,West,281,2.0,3.0,20,0.00,,,0.00,LWC V2.10 B1813,2013-06-15 01:11:00,
2013-06-14 18:16:00,79.8,35.1,29.81,SW,221,1.0,3.0,20,0.00,,,0.00,LWC V2.10 B1813,2013-06-15 01:16:00,
2013-06-14 18:21:00,79.5,34.9,29.81,WSW,246,1.0,3.0,20,0.00,,,0.00,LWC V2.10 B1813,2013-06-15 01:21:00,
2013-06-14 18:26:00,79.4,36.0,29.81,SW,236,2.0,2.0,21,0.00,,,0.00,LWC V2.10 B1813,2013-06-15 01:26:00,
2013-06-14 18:31:00,79.2,33.4,29.81,WSW,255,1.0,2.0,19,0.00,,,0.00,LWC V2.10 B1813,2013-06-15 01:31:00,
2013-06-14 18:36:00,79.1,34.6,29.81,WSW,253,1.0,2.0,20,0.00,,,0.00,LWC V2.10 B1813,2013-06-15 01:36:00,
2013-06-14 18:41:00,78.6,34.2,29.82,SW,232,1.0,4.0,20,0.00,,,0.00,LWC V2.10 B1813,2013-06-15 01:41:00,
2013-06-14 18:46:00,78.0,34.9,29.82,SW,224,1.0,2.0,21,0.00,,,0.00,LWC V2.10 B1813,2013-06-15 01:46:00,
2013-06-14 18:51:00,78.0,34.9,29.82,SSW,200,0.0,2.0,21,0.00,,,0.00,LWC V2.10 B1813,2013-06-15 01:51:00,
2013-06-14 18:56:00,78.0,34.9,29.82,SW,231,1.0,2.0,21,0.00,,,0.00,LWC V2.10 B1813,2013-06-15 01:56:00,
2013-06-14 19:01:00,77.2,34.2,29.82,WSW,253,1.0,1.0,21,0.00,,,0.00,LWC V2.10 B1813,2013-06-15 02:01:00,
2013-06-14 19:06:00,76.3,33.5,29.82,West,278,1.0,2.0,21,0.00,,,0.00,LWC V2.10 B1813,2013-06-15 02:06:00,
2013-06-14 19:11:00,75.8,30.6,29.82,SSW,207,2.0,3.0,19,0.00,,,0.00,LWC V2.10 B1813,2013-06-15 02:11:00,
2013-06-14 19:16:00,74.8,29.8,29.82,WSW,243,1.0,4.0,19,0.00,,,0.00,LWC V2.10 B1813,2013-06-15 02:16:00,
2013-06-14 19:21:00,74.1,29.2,29.82,WSW,249,0.0,1.0,19,0.00,,,0.00,LWC V2.10 B1813,2013-06-15 02:21:00,
2013-06-14 19:26:00,73.5,28.7,29.82,SW,236,0.0,1.0,19,0.00,,,0.00,LWC V2.10 B1813,2013-06-15 02:26:00,
2013-06-14 19:31:00,73.0,28.3,29.82,West,281,1.0,1.0,19,0.00,,,0.00,LWC V2.10 B1813,2013-06-15 02:31:00,
2013-06-14 19:36:00,72.6,28.0,29.83,WSW,250,0.0,1.0,19,0.00,,,0.00,LWC V2.10 B1813,2013-06-15 02:36:00,
2013-06-14 19:41:00,72.1,27.6,29.83,WNW,289,0.0,2.0,19,0.00,,,0.00,LWC V2.10 B1813,2013-06-15 02:41:00,
2013-06-14 19:46:00,71.7,27.2,29.83,SW,232,0.0,1.0,19,0.00,,,0.00,LWC V2.10 B1813,2013-06-15 02:46:00,
2013-06-14 19:51:00,71.3,28.2,29.83,SW,233,0.0,1.0,20,0.00,,,0.00,LWC V2.10 B1813,2013-06-15 02:51:00,
2013-06-14 19:56:00,70.9,27.8,29.83,SW,233,0.0,0.0,20,0.00,,,0.00,LWC V2.10 B1813,2013-06-15 02:56:00,
2013-06-14 20:01:00,70.4,28.6,29.83,SW,232,0.0,0.0,21,0.00,,,0.00,LWC V2.10 B1813,2013-06-15 03:01:00,
2013-06-14 20:06:00,69.7,29.2,29.83,SW,232,0.0,0.0,22,0.00,,,0.00,LWC V2.10 B1813,2013-06-15 03:06:00,
2013-06-14 20:11:00,69.1,29.7,29.83,SW,222,1.0,1.0,23,0.00,,,0.00,LWC V2.10 B1813,2013-06-15 03:11:00,
2013-06-14 20:16:00,68.3,29.1,29.83,SW,222,0.0,0.0,23,0.00,,,0.00,LWC V2.10 B1813,2013-06-15 03:16:00,
2013-06-14 20:21:00,67.3,30.3,29.83,SW,223,0.0,0.0,25,0.00,,,0.00,LWC V2.10 B1813,2013-06-15 03:21:00,
2013-06-14 20:26:00,66.8,30.8,29.83,SW,222,0.0,0.0,26,0.00,,,0.00,LWC V2.10 B1813,2013-06-15 03:26:00,
2013-06-14 20:31:00,65.9,30.0,29.83,SW,222,0.0,0.0,26,0.00,,,0.00,LWC V2.10 B1813,2013-06-15 03:31:00,
2013-06-14 20:36:00,65.2,32.1,29.84,SSE,149,0.0,0.0,29,0.00,,,0.00,LWC V2.10 B1813,2013-06-15 03:36:00,
2013-06-14 20:41:00,64.8,30.9,29.84,SSE,149,0.0,0.0,28,0.00,,,0.00,LWC V2.10 B1813,2013-06-15 03:41:00,
2013-06-14 20:46:00,64.1,31.2,29.84,SSE,149,0.0,1.0,29,0.00,,,0.00,LWC V2.10 B1813,2013-06-15 03:46:00,
2013-06-14 20:51:00,63.3,30.5,29.84,SSE,150,0.0,0.0,29,0.00,,,0.00,LWC V2.10 B1813,2013-06-15 03:51:00,
2013-06-14 20:56:00,62.8,30.9,29.84,SSE,149,0.0,0.0,30,0.00,,,0.00,LWC V2.10 B1813,2013-06-15 03:56:00,
2013-06-14 21:01:00,62.4,30.6,29.84,SSE,149,0.0,0.0,30,0.00,,,0.00,LWC V2.10 B1813,2013-06-15 04:01:00,
2013-06-14 21:06:00,62.0,30.2,29.84,SSE,149,0.0,0.0,30,0.00,,,0.00,LWC V2.10 B1813,2013-06-15 04:06:00,
2013-06-14 21:11:00,61.8,30.0,29.84,SSE,149,0.0,0.0,30,0.00,,,0.00,LWC V2.10 B1813,2013-06-15 04:11:00,
2013-06-14 21:16:00,61.9,30.1,29.84,SSE,150,0.0,0.0,30,0.00,,,0.00,LWC V2.10 B1813,2013-06-15 04:16:00,
2013-06-14 21:21:00,61.5,29.8,29.84,SSE,150,0.0,0.0,30,0.00,,,0.00,LWC V2.10 B1813,2013-06-15 04:21:00,
2013-06-14 21:26:00,60.9,30.1,29.85,SSE,150,0.0,0.0,31,0.00,,,0.00,LWC V2.10 B1813,2013-06-15 04:26:00,
2013-06-14 21:31:00,60.9,29.3,29.85,SSE,149,0.0,0.0,30,0.00,,,0.00,LWC V2.10 B1813,2013-06-15 04:31:00,
2013-06-14 21:36:00,60.6,29.8,29.85,SSE,149,0.0,0.0,31,0.00,,,0.00,LWC V2.10 B1813,2013-06-15 04:36:00,
2013-06-14 21:41:00,60.2,30.2,29.85,SSE,149,0.0,0.0,32,0.00,,,0.00,LWC V2.10 B1813,2013-06-15 04:41:00,
2013-06-14 21:46:00,59.9,30.0,29.86,SSE,149,0.0,0.0,32,0.00,,,0.00,LWC V2.10 B1813,2013-06-15 04:46:00,
2013-06-14 21:51:00,59.6,29.7,29.86,SSE,149,0.0,0.0,32,0.00,,,0.00,LWC V2.10 B1813,2013-06-15 04:51:00,
2013-06-14 21:56:00,59.5,29.6,29.86,SSE,149,0.0,0.0,32,0.00,,,0.00,LWC V2.10 B1813,2013-06-15 04:56:00,
2013-06-14 22:01:00,59.3,29.4,29.86,SSE,150,0.0,0.0,32,0.00,,,0.00,LWC V2.10 B1813,2013-06-15 05:01:00,
2013-06-14 22:06:00,59.4,29.5,29.86,SSE,149,0.0,0.0,32,0.00,,,0.00,LWC V2.10 B1813,2013-06-15 05:06:00,
2013-06-14 22:11:00,59.6,29.7,29.86,SSE,149,0.0,0.0,32,0.00,,,0.00,LWC V2.10 B1813,2013-06-15 05:11:00,
2013-06-14 22:16:00,59.7,29.8,29.86,SSE,149,0.0,0.0,32,0.00,,,0.00,LWC V2.10 B1813,2013-06-15 05:16:00,
2013-06-14 22:21:00,60.0,32.3,29.87,SSE,149,0.0,0.0,35,0.00,,,0.00,LWC V2.10 B1813,2013-06-15 05:21:00,
2013-06-14 22:26:00,60.9,33.8,29.87,SSE,150,0.0,0.0,36,0.00,,,0.00,LWC V2.10 B1813,2013-06-15 05:26:00,
2013-06-14 22:31:00,62.0,34.0,29.87,SSE,149,0.0,1.0,35,0.00,,,0.00,LWC V2.10 B1813,2013-06-15 05:31:00,
2013-06-14 22:36:00,62.9,34.1,29.87,NW,307,1.0,1.0,34,0.00,,,0.00,LWC V2.10 B1813,2013-06-15 05:36:00,
2013-06-14 22:41:00,63.5,34.6,29.87,NW,314,0.0,1.0,34,0.00,,,0.00,LWC V2.10 B1813,2013-06-15 05:41:00,
2013-06-14 22:46:00,63.9,35.0,29.86,NW,314,0.0,0.0,34,0.00,,,0.00,LWC V2.10 B1813,2013-06-15 05:46:00,
2013-06-14 22:51:00,63.9,35.0,29.86,NW,314,0.0,0.0,34,0.00,,,0.00,LWC V2.10 B1813,2013-06-15 05:51:00,
2013-06-14 22:56:00,63.7,34.8,29.87,NW,314,0.0,0.0,34,0.00,,,0.00,LWC V2.10 B1813,2013-06-15 05:56:00,
2013-06-14 23:00:00,63.2,35.1,29.86,NW,314,0.0,0.0,35,0.00,,,0.00,LWC V2.10 B1813,2013-06-15 06:00:00,
2013-06-14 23:05:00,62.8,34.7,29.86,NW,313,0.0,0.0,35,0.00,,,0.00,LWC V2.10 B1813,2013-06-15 06:05:00,
2013-06-14 23:10:00,62.4,34.4,29.86,NW,314,0.0,0.0,35,0.00,,,0.00,LWC V2.10 B1813,2013-06-15 06:10:00,
2013-06-14 23:15:00,61.9,33.9,29.86,NW,314,0.0,0.0,35,0.00,,,0.00,LWC V2.10 B1813,2013-06-15 06:15:00,
2013-06-14 23:20:00,61.2,34.0,29.86,North,8,1.0,1.0,36,0.00,,,0.00,LWC V2.10 B1813,2013-06-15 06:20:00,
2013-06-14 23:25:00,60.7,33.6,29.86,North,8,0.0,1.0,36,0.00,,,0.00,LWC V2.10 B1813,2013-06-15 06:25:00,
2013-06-14 23:30:00,60.3,33.9,29.86,North,9,0.0,1.0,37,0.00,,,0.00,LWC V2.10 B1813,2013-06-15 06:30:00,
2013-06-14 23:35:00,60.0,33.7,29.86,NNE,26,0.0,1.0,37,0.00,,,0.00,LWC V2.10 B1813,2013-06-15 06:35:00,
2013-06-14 23:40:00,59.7,34.1,29.86,NNE,26,0.0,0.0,38,0.00,,,0.00,LWC V2.10 B1813,2013-06-15 06:40:00,
2013-06-14 23:45:00,59.7,34.1,29.86,NNE,26,0.0,0.0,38,0.00,,,0.00,LWC V2.10 B1813,2013-06-15 06:45:00,
2013-06-14 23:50:00,59.6,34.6,29.86,NNE,26,0.0,1.0,39,0.00,,,0.00,LWC V2.10 B1813,2013-06-15 06:50:00,
2013-06-14 23:55:00,60.2,35.2,29.86,ENE,68,0.0,1.0,39,0.00,,,0.00,LWC V2.10 B1813,2013-06-15 06:55:00,